EN

Hourly Weather Zdolbunov

Today, 11 May, Tuesday

Time Temperature Precipitation Wind Pressure Humidity
00:00 +10°C° 0 mm 3 mps 748 mmHg 85%
01:00 +9°C° 0 mm 3 mps 748 mmHg 86%
02:00 +9°C° 0 mm 3 mps 748 mmHg 87%
03:00 +8°C° 0 mm 3 mps 748 mmHg 87%
04:00 +8°C° 0 mm 3 mps 748 mmHg 86%
05:00 +8°C° 0 mm 3 mps 748 mmHg 86%
06:00 +10°C° 0 mm 4 mps 748 mmHg 79%
07:00 +11°C° 0 mm 4 mps 748 mmHg 73%
08:00 +13°C° 0 mm 5 mps 748 mmHg 67%
09:00 +15°C° 0 mm 5 mps 748 mmHg 61%
10:00 +16°C° 0 mm 5 mps 748 mmHg 55%
11:00 +17°C° 0 mm 5 mps 747 mmHg 49%
12:00 +19°C° 0 mm 5 mps 747 mmHg 46%
13:00 +19°C° 0 mm 5 mps 747 mmHg 43%
14:00 +20°C° 0 mm 5 mps 747 mmHg 40%
15:00 +20°C° 0 mm 4 mps 746 mmHg 44%
16:00 +20°C° 0 mm 4 mps 746 mmHg 49%
17:00 +20°C° 0 mm 4 mps 745 mmHg 53%
18:00 +18°C° 0 mm 4 mps 745 mmHg 62%
19:00 +16°C° 0 mm 3 mps 745 mmHg 70%
20:00 +13°C° 0 mm 3 mps 745 mmHg 79%
21:00 +12°C° 0 mm 3 mps 745 mmHg 81%
22:00 +12°C° 0 mm 3 mps 745 mmHg 83%
23:00 +11°C° 0 mm 3 mps 745 mmHg 85%

Tomorrow, 12 May, Wednesday

Time Temperature Precipitation Wind Pressure Humidity
00:00 +11°C° 0 mm 3 mps 744 mmHg 87%
01:00 +10°C° 0 mm 3 mps 744 mmHg 89%
02:00 +10°C° 0 mm 3 mps 744 mmHg 91%
03:00 +10°C° 0 mm 3 mps 744 mmHg 93%
04:00 +10°C° 0 mm 3 mps 743 mmHg 95%
05:00 +10°C° 0 mm 3 mps 743 mmHg 97%
06:00 +9°C° 0 mm 5 mps 743 mmHg 91%
07:00 +10°C° 0 mm 6 mps 743 mmHg 85%
08:00 +11°C° 0 mm 7 mps 743 mmHg 79%
09:00 +12°C° 0 mm 7 mps 743 mmHg 71%
10:00 +14°C° 0 mm 7 mps 743 mmHg 63%
11:00 +15°C° 0 mm 7 mps 743 mmHg 55%
12:00 +15°C° 0 mm 7 mps 743 mmHg 55%
13:00 +15°C° 0 mm 7 mps 743 mmHg 55%
14:00 +15°C° 0 mm 8 mps 743 mmHg 56%
15:00 +14°C° 0 mm 7 mps 743 mmHg 59%
16:00 +12°C° 0 mm 7 mps 742 mmHg 62%
17:00 +11°C° 0 mm 7 mps 742 mmHg 65%
18:00 +10°C° 0 mm 6 mps 742 mmHg 69%
19:00 +10°C° 0 mm 4 mps 742 mmHg 72%
20:00 +9°C° 0 mm 3 mps 742 mmHg 76%
21:00 +8°C° 0 mm 3 mps 741 mmHg 80%
22:00 +7°C° 0 mm 3 mps 741 mmHg 85%
23:00 +7°C° 0 mm 2 mps 741 mmHg 90%

Day after tomorrow, 13 May, Thursday

Time Temperature Precipitation Wind Pressure Humidity
00:00 +5°C° 0 mm 3 mps 740 mmHg 91%
01:00 +5°C° 0 mm 3 mps 740 mmHg 92%
02:00 +5°C° 0 mm 3 mps 739 mmHg 94%
03:00 +5°C° 0 mm 3 mps 739 mmHg 94%
04:00 +4°C° 0 mm 3 mps 739 mmHg 95%
05:00 +4°C° 0 mm 3 mps 738 mmHg 95%
06:00 +6°C° 0 mm 4 mps 738 mmHg 87%
07:00 +8°C° 0 mm 5 mps 738 mmHg 80%
08:00 +10°C° 0 mm 6 mps 738 mmHg 72%
09:00 +10°C° 0 mm 6 mps 737 mmHg 71%
10:00 +11°C° 0 mm 6 mps 737 mmHg 71%
11:00 +11°C° 0 mm 6 mps 737 mmHg 71%
12:00 +10°C° 0.1 mm 6 mps 737 mmHg 77%
13:00 +10°C° 0.1 mm 6 mps 736 mmHg 83%
14:00 +9°C° 0.1 mm 6 mps 736 mmHg 89%
15:00 +9°C° 0.7 mm 5 mps 736 mmHg 91%
16:00 +9°C° 0.7 mm 5 mps 736 mmHg 93%
17:00 +10°C° 0.7 mm 5 mps 735 mmHg 95%
18:00 +10°C° 0.6 mm 5 mps 735 mmHg 95%
19:00 +10°C° 0.6 mm 5 mps 735 mmHg 95%
20:00 +12°C° 0.6 mm 5 mps 735 mmHg 95%
21:00 +12°C° 0.4 mm 5 mps 735 mmHg 95%
22:00 +12°C° 0.4 mm 5 mps 735 mmHg 96%
23:00 +12°C° 0.4 mm 5 mps 735 mmHg 96%

14 May, Friday

Time Temperature Precipitation Wind Pressure Humidity
00:00 +10°C° 0.2 mm 5 mps 735 mmHg 96%
01:00 +11°C° 0.2 mm 4 mps 735 mmHg 96%
02:00 +11°C° 0.2 mm 4 mps 735 mmHg 96%
03:00 +10°C° 0 mm 4 mps 735 mmHg 96%
04:00 +10°C° 0 mm 3 mps 735 mmHg 97%
05:00 +9°C° 0 mm 3 mps 735 mmHg 97%
06:00 +11°C° 0 mm 3 mps 735 mmHg 93%
07:00 +12°C° 0 mm 3 mps 736 mmHg 88%
08:00 +14°C° 0 mm 3 mps 736 mmHg 83%
09:00 +16°C° 0.2 mm 3 mps 736 mmHg 77%
10:00 +17°C° 0.2 mm 3 mps 736 mmHg 70%
11:00 +19°C° 0.2 mm 3 mps 736 mmHg 63%
12:00 +19°C° 0.7 mm 3 mps 736 mmHg 66%
13:00 +19°C° 0.7 mm 3 mps 736 mmHg 68%
14:00 +18°C° 0.7 mm 4 mps 736 mmHg 70%
15:00 +18°C° 0.5 mm 4 mps 736 mmHg 72%
16:00 +17°C° 0.5 mm 4 mps 736 mmHg 74%
17:00 +17°C° 0.5 mm 4 mps 736 mmHg 76%
18:00 +14°C° 0 mm 3 mps 736 mmHg 79%
19:00 +13°C° 0 mm 3 mps 737 mmHg 82%
20:00 +12°C° 0 mm 3 mps 737 mmHg 85%
21:00 +11°C° 0 mm 3 mps 737 mmHg 87%
22:00 +11°C° 0 mm 3 mps 737 mmHg 89%
23:00 +10°C° 0 mm 3 mps 738 mmHg 91%

15 May, Saturday

Time Temperature Precipitation Wind Pressure Humidity
00:00 +9°C° 0 mm 3 mps 738 mmHg 92%
01:00 +9°C° 0 mm 3 mps 738 mmHg 93%
02:00 +8°C° 0 mm 3 mps 738 mmHg 94%
03:00 +8°C° 0 mm 3 mps 738 mmHg 93%
04:00 +8°C° 0 mm 3 mps 739 mmHg 93%
05:00 +8°C° 0 mm 3 mps 739 mmHg 93%
06:00 +9°C° 0 mm 3 mps 739 mmHg 91%
07:00 +10°C° 0 mm 3 mps 739 mmHg 89%
08:00 +11°C° 0 mm 3 mps 739 mmHg 87%
09:00 +12°C° 0.1 mm 3 mps 740 mmHg 84%
10:00 +13°C° 0.1 mm 3 mps 740 mmHg 80%
11:00 +14°C° 0.1 mm 3 mps 740 mmHg 76%
12:00 +16°C° 0.1 mm 3 mps 740 mmHg 72%
13:00 +17°C° 0.1 mm 3 mps 740 mmHg 68%
14:00 +17°C° 0.1 mm 3 mps 740 mmHg 64%
15:00 +18°C° 0 mm 2 mps 740 mmHg 63%
16:00 +18°C° 0 mm 2 mps 740 mmHg 62%
17:00 +19°C° 0 mm 1 mps 740 mmHg 61%
18:00 +18°C° 0 mm 1 mps 740 mmHg 67%
19:00 +15°C° 0 mm 1 mps 740 mmHg 73%
20:00 +13°C° 0 mm 1 mps 740 mmHg 79%
21:00 +13°C° 0 mm 1 mps 740 mmHg 82%
22:00 +12°C° 0 mm 1 mps 740 mmHg 84%
23:00 +12°C° 0 mm 1 mps 740 mmHg 86%

16 May, Sunday

Time Temperature Precipitation Wind Pressure Humidity
00:00 +11°C° 0 mm 1 mps 740 mmHg 87%
01:00 +11°C° 0 mm 1 mps 740 mmHg 88%
02:00 +10°C° 0 mm 2 mps 740 mmHg 90%
03:00 +10°C° 0 mm 2 mps 740 mmHg 90%
04:00 +9°C° 0 mm 2 mps 740 mmHg 91%
05:00 +9°C° 0 mm 2 mps 740 mmHg 92%
06:00 +12°C° 0 mm 2 mps 740 mmHg 88%
07:00 +13°C° 0 mm 3 mps 740 mmHg 83%
08:00 +14°C° 0 mm 3 mps 740 mmHg 79%
09:00 +17°C° 0 mm 3 mps 740 mmHg 74%
10:00 +18°C° 0 mm 4 mps 740 mmHg 70%
11:00 +19°C° 0 mm 4 mps 740 mmHg 66%
12:00 +19°C° 0.7 mm 4 mps 739 mmHg 68%
13:00 +19°C° 0.7 mm 3 mps 739 mmHg 71%
14:00 +19°C° 0.7 mm 3 mps 739 mmHg 74%
15:00 +18°C° 0.5 mm 2 mps 739 mmHg 78%
16:00 +17°C° 0.5 mm 2 mps 739 mmHg 82%
17:00 +16°C° 0.5 mm 1 mps 738 mmHg 86%
18:00 +16°C° 0.1 mm 1 mps 738 mmHg 87%
19:00 +15°C° 0.1 mm 2 mps 738 mmHg 89%
20:00 +15°C° 0.1 mm 2 mps 738 mmHg 90%
21:00 +15°C° 0.1 mm 2 mps 738 mmHg 90%
22:00 +14°C° 0.1 mm 2 mps 738 mmHg 90%
23:00 +14°C° 0.1 mm 2 mps 738 mmHg 90%
Show more

We Need Your Consent

Meteoprog and our Service Providers may store and access personal data such as cookies, device identifiers or other similar technologies on your device and process such data to personalise content and ads, as well as provide social media features and to analyse the traffic.

  • Store and/or access information on your device

    Cookies, device identifiers or other information can be stored or accessed on your device for the purposes indicated above.

  • Personalised ads and content, ad and content measurement, audience insights, and products development

    Ads and content can be personalised based on a profile. More data can be added to better personalise ads and content. Ad and content performance can be measured. Insights about the audience who saw the ads and content can be derived. Such data can be used to develop or improve user’s experience, systems and software.

By clicking ‘I Agree’ you will allow the use of indicated cookies, device identifiers, web beacons or other similar technologies. Your settings can be changed in the browser on your device.

For certain purposes, legitimate interests may be relied on, rather than consent. You can read more about this in our Privacy and Cookie Policy.